Location: Baaja
(6.7242°N, 10.9817°W)
Time: 02:02:49
(UTC+00:00)

Daily predictions for brighter satellites

Satellite Brightness Start Highest point End
(mag) Time Altitude Azimuth Time Altitude Azimuth Time Altitude Azimuth
ARIANE 5 R/B 4.5 03:24:13 27° ESE 03:24:13 27° ESE 03:31:19 10° E
ARIANE 5 DEB (SYLDA) 4.2 03:53:06 37° ESE 03:53:06 37° ESE 03:55:48 10° ESE
ATLAS CENTAUR R/B 3.9 04:30:16 10° SSE 04:33:32 21° ESE 04:36:40 10° ENE
ADEOS Rocket 4.4 04:32:28 10° SE 04:37:27 31° ENE 04:42:13 10° NNE
Nadezhda 4 Rocket 4.0 04:32:46 10° S 04:38:53 78° E 04:44:59 10° N
ARIANE 5 DEB (SYLDA) 4.2 04:38:27 42° SW 04:40:10 51° S 04:54:30 10° ESE
Meteor 2-10 4.2 04:43:54 61° SSW 04:43:54 61° SSW 04:48:42 10° S
GPS 2-15 Rocket1 3.4 04:46:30 63° NNE 04:46:30 63° NNE 04:50:49 10° ENE
Maqsat-B 2.7 04:47:55 61° E 04:47:55 61° E 04:51:18 10° E
BREEZE-M DEB (TANK) 3.1 04:49:51 42° E 04:49:51 42° E 04:53:51 10° NE
Cosmos 1110 Rocket 4.2 04:47:17 31° N 04:49:40 66° ENE 04:54:48 10° SSE
NATO 3D Rocket 3.9 04:52:08 40° SSW 04:53:19 50° SSE 04:58:26 10° E
H-2A R/B 3.0 04:52:32 10° SSE 04:56:54 48° ENE 05:01:11 10° N
X-37B 3.1 04:55:42 16° SSE 04:56:59 20° SE 04:59:23 10° E
Maqsat-H 1.2 04:59:27 81° SW 04:59:36 86° S 05:03:43 10° E
ADEOS 3.4 04:57:16 10° NNE 05:02:28 86° WNW 05:07:42 10° SSW
Cosmos 2180 Rocket 4.5 04:57:27 10° N 05:03:37 83° E 05:09:45 10° S
SEDSat Delta rocket 2.7 05:04:12 66° SW 05:04:16 66° SSW 05:08:16 10° SE
SL-14 R/B 3.6 05:00:55 10° S 05:10:16 - N 05:03:56 51° SSW
Cosmos 1908 4.0 05:01:01 10° N 05:04:48 52° E 05:08:36 10° SSE
CZ-4B R/B 4.2 05:03:45 10° NNE 05:07:36 62° E 05:11:18 10° S
ARIANE 5 R/B 4.5 05:01:34 25° W 05:09:41 50° SSW 05:13:52 10° ESE
Landsat 5 3.3 05:07:52 10° S 05:12:04 82° WSW 05:14:34 23° NNW
Cosmos 1356 Rocket 3.6 05:18:26 41° WNW 05:19:06 45° W 05:23:00 10° SSW
Okean 1-7 Rocket 4.4 05:14:55 10° S 05:19:22 55° E 05:23:49 10° NNE
ARGOS Delta rocket 4.4 05:16:18 10° NNE 05:21:45 73° E 05:27:06 10° S
ALOS 2.4 05:19:24 10° N 05:23:54 50° WNW 05:28:24 10° SSW
Meteor 1-24 Rocket 3.7 05:21:45 10° SSW 05:26:59 52° W 05:32:23 10° N
Cosmos 1892 Rocket 3.4 05:23:41 10° S 05:27:58 68° W 05:32:16 10° N
CZ-4C R/B 3.8 05:29:34 10° SSW 05:32:09 27° WSW 05:32:09 27° WSW
Cosmos 1953 3.5 05:32:59 23° WSW 05:32:59 23° WSW 05:35:53 10° SSW
Cosmos 614 Rocket 4.1 05:27:45 10° SSW 05:32:47 51° WNW 05:37:46 10° N
ARIANE 5 R/B 2.8 05:24:18 15° WSW 05:33:22 48° S 05:36:27 10° ESE
deb Chang Zheng 4 4.0 05:29:47 10° N 05:33:44 38° WNW 05:37:43 10° SW
Cosmos 2026 Rocket 4.0 05:29:27 10° S 05:35:45 76° W 05:42:06 10° N
Ariane H10 3.8 05:31:52 10° SW 05:35:48 22° S 05:38:21 10° SE
METEOR-M 4.3 05:32:06 10° N 05:37:12 48° WNW 05:42:19 10° SSW
ARIANE 5 R/B 3.8 05:35:19 13° SW 05:37:13 27° SSE 05:43:02 10° ESE
SJ-12 3.8 05:35:24 10° N 05:39:27 73° WNW 05:43:30 10° SSW
Ariane H10 -0.5 05:40:29 63° ENE 05:40:29 63° ENE 05:41:47 10° E
SL-19 R/B 4.5 05:37:32 10° NNW 05:40:21 33° WNW 05:43:29 10° SW
Cosmos 1484 Rocket 3.8 05:39:56 10° NNW 05:42:49 21° WNW 05:45:42 10° SW
ASTRO F (AKARI) 4.4 05:39:42 10° NNE 05:42:56 75° ESE 05:46:03 10° S
Cosmos 1656 3.6 05:41:08 10° NNW 05:46:48 79° WSW 05:52:24 10° SSE
Meteor PRIRODA 3.5 05:48:14 10° N 05:51:53 67° W 05:55:33 10° SSW
Cosmos 1626 Rocket 4.2 05:47:35 10° S 05:51:57 60° E 05:56:19 10° NNE
Cosmos 1023 Rocket 4.4 05:48:40 10° SSW 05:53:44 66° WNW 05:58:46 10° N
Cosmos 1190 Rocket 4.0 05:55:03 10° SSW 06:00:13 59° WNW 06:05:23 10° N
USA 267 4.3 05:54:07 10° NE 06:00:24 51° SE 06:06:41 10° SSW
SAR-Lupe-4 4.3 05:57:54 10° SSE 06:01:25 58° ENE 06:04:54 10° N
ERS-2 2.4 05:59:55 10° S 06:03:25 46° WSW 06:06:55 10° NNW
Meteor 1-31 Rocket 4.4 06:05:26 10° NW 06:07:36 14° WNW 06:09:46 10° WSW
Cosmos 2098 Rocket 4.2 06:03:19 10° S 06:10:35 85° W 06:16:47 10° N
ARIANE 5 R/B 4.4 05:59:49 10° W 06:49:37 67° SSW 06:55:44 10° ESE
